User: anonymous   Login
Location: Mentone
(34.5413°N, 85.5351°W)
Time: 12:54:35
(UTC-05:00)
Language:

Cosmos 2150 Rocket - Orbit

View from above orbital plane
View from above orbital plane
View from above satellite
View from above satellite

Ground track
Ground track

The orbit data is extracted from the following two-line orbital elements,

1 21419U 91041B   16237.19038685  .00000035  00000-0  21632-4 0  9997
2 21419  74.0403 122.7429 0040226 123.2273 353.3514 14.33824577317906
Epoch (UTC): 24 August 2016 04:34:09
Eccentricity: 0.0040226
inclination: 74.0403°
perigee height: 750 km
apogee height: 808 km
right ascension of ascending node: 122.7429°
argument of perigee: 123.2273°
revolutions per day: 14.33824577
mean anomaly at epoch: 353.3514°
orbit number at epoch: 31790

The dashed part of the orbit path shows where the satellite is in the earth's shadow,  

DLR